When you browse on this site, cookies collect data to enhance your experience and personalize the content and advertising you see.
Visit our Privacy Policy to learn more. By continuing to use the site, you agree to this use of cookies and data.
  • In United Kingdom
  • List of Countries
  • For 7 days
  • Water Temperature
  • Weather Map
  • Weather Widgets
  • user-avatar
    Login

    Hourly Weather Brecon

    Today, 6 June, Saturday

    Time Temperature Precipitation Wind Pressure Humidity
    00:00 +2°C° 0 mm 5 mps 735 mmHg 91%
    01:00 +2°C° 0 mm 5 mps 734 mmHg 89%
    02:00 +2°C° 0 mm 6 mps 734 mmHg 88%
    03:00 +2°C° 0 mm 7 mps 734 mmHg 86%
    04:00 +2°C° 0 mm 8 mps 734 mmHg 85%
    05:00 +2°C° 0 mm 8 mps 734 mmHg 83%
    06:00 +3°C° 0 mm 9 mps 734 mmHg 81%
    07:00 +5°C° 0.1 mm 9 mps 734 mmHg 83%
    08:00 +5°C° 0.1 mm 9 mps 734 mmHg 84%
    09:00 +5°C° 0.1 mm 10 mps 733 mmHg 86%
    10:00 +6°C° 0.5 mm 9 mps 733 mmHg 88%
    11:00 +7°C° 0.5 mm 9 mps 733 mmHg 91%
    12:00 +7°C° 0.5 mm 9 mps 734 mmHg 93%
    13:00 +9°C° 0.3 mm 8 mps 734 mmHg 89%
    14:00 +10°C° 0.3 mm 8 mps 734 mmHg 85%
    15:00 +11°C° 0.3 mm 8 mps 734 mmHg 81%
    16:00 +11°C° 0.1 mm 8 mps 734 mmHg 78%
    17:00 +11°C° 0.1 mm 8 mps 735 mmHg 76%
    18:00 +12°C° 0.1 mm 7 mps 735 mmHg 73%
    19:00 +10°C° 0 mm 7 mps 735 mmHg 79%
    20:00 +9°C° 0 mm 6 mps 736 mmHg 86%
    21:00 +7°C° 0 mm 5 mps 737 mmHg 92%
    22:00 +7°C° 0 mm 4 mps 737 mmHg 93%
    23:00 +6°C° 0 mm 4 mps 737 mmHg 94%

    Tomorrow, 7 June, Sunday

    Time Temperature Precipitation Wind Pressure Humidity
    00:00 +7°C° 0 mm 3 mps 737 mmHg 95%
    01:00 +7°C° 0 mm 3 mps 737 mmHg 96%
    02:00 +7°C° 0 mm 3 mps 738 mmHg 96%
    03:00 +7°C° 0 mm 3 mps 738 mmHg 96%
    04:00 +8°C° 0 mm 3 mps 738 mmHg 95%
    05:00 +9°C° 0 mm 3 mps 738 mmHg 94%
    06:00 +9°C° 0 mm 3 mps 739 mmHg 92%
    07:00 +11°C° 0 mm 3 mps 739 mmHg 86%
    08:00 +12°C° 0 mm 3 mps 740 mmHg 81%
    09:00 +13°C° 0 mm 4 mps 740 mmHg 75%
    10:00 +14°C° 0.2 mm 4 mps 740 mmHg 73%
    11:00 +15°C° 0.2 mm 4 mps 741 mmHg 72%
    12:00 +15°C° 0.2 mm 4 mps 741 mmHg 71%
    13:00 +15°C° 0.4 mm 4 mps 741 mmHg 74%
    14:00 +15°C° 0.4 mm 4 mps 741 mmHg 76%
    15:00 +15°C° 0.4 mm 4 mps 742 mmHg 79%
    16:00 +14°C° 0.3 mm 4 mps 742 mmHg 80%
    17:00 +14°C° 0.3 mm 4 mps 742 mmHg 81%
    18:00 +14°C° 0.3 mm 5 mps 742 mmHg 81%
    19:00 +12°C° 0.1 mm 4 mps 743 mmHg 84%
    20:00 +11°C° 0.1 mm 4 mps 744 mmHg 88%
    21:00 +9°C° 0.1 mm 3 mps 744 mmHg 91%
    22:00 +8°C° 0 mm 3 mps 744 mmHg 91%
    23:00 +8°C° 0 mm 3 mps 745 mmHg 92%

    Day after tomorrow, 8 June, Monday

    Time Temperature Precipitation Wind Pressure Humidity
    00:00 +7°C° 0 mm 3 mps 745 mmHg 93%
    01:00 +7°C° 0 mm 3 mps 745 mmHg 93%
    02:00 +7°C° 0 mm 3 mps 746 mmHg 93%
    03:00 +5°C° 0 mm 3 mps 746 mmHg 94%
    04:00 +7°C° 0 mm 3 mps 746 mmHg 92%
    05:00 +8°C° 0 mm 2 mps 746 mmHg 90%
    06:00 +8°C° 0 mm 2 mps 746 mmHg 89%
    07:00 +10°C° 0 mm 2 mps 747 mmHg 83%
    08:00 +12°C° 0 mm 2 mps 747 mmHg 78%
    09:00 +13°C° 0 mm 2 mps 748 mmHg 73%
    10:00 +14°C° 0 mm 2 mps 748 mmHg 72%
    11:00 +14°C° 0 mm 2 mps 748 mmHg 71%
    12:00 +14°C° 0 mm 2 mps 748 mmHg 70%
    13:00 +14°C° 0.1 mm 2 mps 748 mmHg 71%
    14:00 +14°C° 0.1 mm 2 mps 748 mmHg 72%
    15:00 +15°C° 0.1 mm 1 mps 748 mmHg 73%
    16:00 +14°C° 0.2 mm 1 mps 748 mmHg 76%
    17:00 +14°C° 0.2 mm 2 mps 748 mmHg 80%
    18:00 +14°C° 0.2 mm 2 mps 748 mmHg 83%
    19:00 +13°C° 0.1 mm 1 mps 748 mmHg 85%
    20:00 +12°C° 0.1 mm 1 mps 749 mmHg 87%
    21:00 +11°C° 0.1 mm 1 mps 749 mmHg 89%
    22:00 +11°C° 0 mm 1 mps 749 mmHg 89%
    23:00 +9°C° 0 mm 2 mps 749 mmHg 89%

    9 June, Tuesday

    Time Temperature Precipitation Wind Pressure Humidity
    00:00 +9°C° 0 mm 2 mps 749 mmHg 89%
    01:00 +8°C° 0 mm 2 mps 749 mmHg 89%
    02:00 +8°C° 0 mm 2 mps 749 mmHg 90%
    03:00 +7°C° 0 mm 2 mps 749 mmHg 91%
    04:00 +8°C° 0 mm 2 mps 749 mmHg 90%
    05:00 +8°C° 0 mm 2 mps 749 mmHg 88%
    06:00 +8°C° 0 mm 2 mps 749 mmHg 87%
    07:00 +9°C° 0 mm 2 mps 750 mmHg 84%
    08:00 +10°C° 0 mm 2 mps 750 mmHg 80%
    09:00 +12°C° 0 mm 2 mps 750 mmHg 76%
    10:00 +13°C° 0 mm 2 mps 750 mmHg 73%
    11:00 +14°C° 0 mm 2 mps 750 mmHg 70%
    12:00 +15°C° 0 mm 2 mps 750 mmHg 68%
    13:00 +15°C° 0 mm 2 mps 750 mmHg 66%
    14:00 +15°C° 0 mm 2 mps 750 mmHg 64%
    15:00 +16°C° 0 mm 2 mps 749 mmHg 63%
    16:00 +15°C° 0 mm 1 mps 749 mmHg 67%
    17:00 +15°C° 0 mm 1 mps 750 mmHg 72%
    18:00 +14°C° 0 mm 1 mps 750 mmHg 77%
    19:00 +13°C° 0 mm 1 mps 750 mmHg 80%
    20:00 +12°C° 0 mm 1 mps 750 mmHg 83%
    21:00 +10°C° 0 mm 0 mps 750 mmHg 86%
    22:00 +10°C° 0 mm 0 mps 750 mmHg 86%
    23:00 +11°C° 0 mm 1 mps 750 mmHg 86%

    10 June, Wednesday

    Time Temperature Precipitation Wind Pressure Humidity
    00:00 +11°C° 0 mm 1 mps 750 mmHg 86%
    01:00 +10°C° 0 mm 1 mps 751 mmHg 87%
    02:00 +10°C° 0 mm 1 mps 751 mmHg 88%
    03:00 +9°C° 0 mm 1 mps 751 mmHg 89%
    04:00 +10°C° 0 mm 1 mps 751 mmHg 88%
    05:00 +11°C° 0 mm 1 mps 751 mmHg 86%
    06:00 +11°C° 0 mm 1 mps 751 mmHg 85%
    07:00 +13°C° 0 mm 1 mps 751 mmHg 80%
    08:00 +14°C° 0 mm 1 mps 752 mmHg 75%
    09:00 +16°C° 0 mm 1 mps 752 mmHg 70%
    10:00 +16°C° 0 mm 1 mps 752 mmHg 69%
    11:00 +18°C° 0 mm 1 mps 752 mmHg 67%
    12:00 +18°C° 0 mm 1 mps 752 mmHg 65%
    13:00 +17°C° 0 mm 2 mps 752 mmHg 67%
    14:00 +17°C° 0 mm 2 mps 752 mmHg 68%
    15:00 +17°C° 0 mm 2 mps 752 mmHg 69%
    16:00 +17°C° 0.1 mm 3 mps 752 mmHg 72%
    17:00 +17°C° 0.1 mm 3 mps 752 mmHg 75%
    18:00 +16°C° 0.1 mm 3 mps 752 mmHg 78%
    19:00 +14°C° 0 mm 3 mps 752 mmHg 80%
    20:00 +14°C° 0 mm 2 mps 752 mmHg 83%
    21:00 +12°C° 0 mm 2 mps 752 mmHg 86%
    22:00 +12°C° 0 mm 2 mps 752 mmHg 84%
    23:00 +10°C° 0 mm 2 mps 752 mmHg 82%

    11 June, Thursday

    Time Temperature Precipitation Wind Pressure Humidity
    00:00 +10°C° 0 mm 2 mps 752 mmHg 80%
    01:00 +10°C° 0 mm 2 mps 752 mmHg 81%
    02:00 +10°C° 0 mm 1 mps 751 mmHg 82%
    03:00 +10°C° 0 mm 1 mps 751 mmHg 83%
    04:00 +11°C° 0 mm 1 mps 751 mmHg 82%
    05:00 +12°C° 0 mm 1 mps 751 mmHg 81%
    06:00 +13°C° 0 mm 1 mps 751 mmHg 80%
    07:00 +14°C° 0 mm 1 mps 751 mmHg 75%
    08:00 +16°C° 0 mm 1 mps 751 mmHg 70%
    09:00 +19°C° 0 mm 1 mps 751 mmHg 65%
    10:00 +19°C° 0 mm 1 mps 751 mmHg 64%
    11:00 +19°C° 0 mm 2 mps 750 mmHg 63%
    12:00 +20°C° 0 mm 2 mps 750 mmHg 62%
    13:00 +20°C° 0 mm 2 mps 750 mmHg 64%
    14:00 +20°C° 0 mm 2 mps 749 mmHg 67%
    15:00 +19°C° 0 mm 2 mps 749 mmHg 70%
    16:00 +19°C° 0.1 mm 2 mps 749 mmHg 73%
    17:00 +19°C° 0.1 mm 2 mps 749 mmHg 75%
    18:00 +19°C° 0.1 mm 2 mps 748 mmHg 78%
    19:00 +17°C° 0 mm 2 mps 748 mmHg 83%
    20:00 +16°C° 0 mm 1 mps 748 mmHg 87%
    21:00 +14°C° 0 mm 1 mps 748 mmHg 92%
    22:00 +14°C° 0 mm 1 mps 748 mmHg 92%
    23:00 +14°C° 0 mm 1 mps 748 mmHg 93%
    Show more